Regional Weather Roundup
Issued by NWS

Home | Current Version | Previous Version | Graphics & Text | Print | Product List | Glossary Off
Versions: 1 2 3 4 5 6 7 8 9 10 11 12 13 14 15 16 17 18 19 20 21 22 23 24 25 26 27 28 29 30 31 32 33 34 35 36 37 38 39 40 41 42 43 44 45 46 47 48 49 50

835
ASUS43 KTOP 161959
RWRKS

WEATHER ROUNDUP FOR KANSAS
NATIONAL WEATHER SERVICE GOODLAND KS
200 PM CST TUE JAN 16 2018

NOTE:  "FAIR" INDICATES FEW OR NO CLOUDS BELOW 12,000 FEET WITH NO
SIGNIFICANT WEATHER AND/OR OBSTRUCTIONS TO VISIBILITY.

KSZ001>006-013>018-027>032-041>047-162100-
NORTHWEST KANSAS

CITY           SKY/WX    TMP DP  RH WIND       PRES   REMARKS
GOODLAND       SUNNY     20  -4  34 VRB5      30.51F
HILL CITY      SUNNY     15   1  53 NW8       30.67F
RUSSELL        SUNNY    N/A N/A N/A NW7       30.69F
$$

KSZ061>065-074>080-084>089-162100-
SOUTHWEST KANSAS

CITY           SKY/WX    TMP DP  RH WIND       PRES   REMARKS
DODGE CITY     SUNNY     17  -3  41 NW10      30.64F WCI   5
GARDEN CITY    SUNNY     19 -10  27 N12       30.61F WCI   7
GREAT BEND     SUNNY     15   4  61 NW10      30.70F WCI   2
LIBERAL        SUNNY     21  -7  28 N8        30.62F
$$

KSZ066>073-081>083-090>101-162100-
SOUTHEAST KANSAS

CITY           SKY/WX    TMP DP  RH WIND       PRES   REMARKS
CHANUTE        PTSUNNY   11   2  67 NW12      30.75F WCI  -3
COFFEYVILLE    SUNNY     11   2  67 N12       30.79F WCI  -3
HUTCHINSON     SUNNY     14   6  70 W15       30.71F WCI  -1
NEWTON         MOSUNNY   13   4  67 NW14      30.72F WCI  -2
PARSONS        MOSUNNY   11   3  70 N10       30.77F WCI  -3
WICHITA INTL   MOSUNNY   14   4  64 N9        30.73F
WICHITA JABRA  PTSUNNY   11   4  73 NW12      30.73F WCI  -3
WICHITA MCCONL SUNNY     12   3  65 NW13      30.73F WCI  -3
WINFIELD       SUNNY     14   4  64 N14       30.76F WCI  -1
$$

KSZ007>012-019>026-033>040-048>060-102>105-162100-
NORTHEAST KANSAS

CITY           SKY/WX    TMP DP  RH WIND       PRES   REMARKS
CONCORDIA      SUNNY     12   4  70 NW9       30.71F
EMPORIA        MOSUNNY    9   1  70 NW9       30.73F
LAWRENCE       MOSUNNY   11   1  64 W9        30.75F
MANHATTAN      SUNNY     12   0  58 NW7       30.76F
OLATHE IND     MOSUNNY    9   2  73 NW12      30.72F WCI  -6
OLATHE EXE     MOSUNNY    8   0  69 NW10      30.71F WCI  -6
SALINA         MOSUNNY   14   4  64 NW9       30.75F
TOPEKA BILLARD SUNNY     12   2  64 NW9       30.74F
TOPEKA FORBES  SUNNY     10   0  63 NW13      30.72F WCI  -5
$$




USA.gov is the U.S. government's official web portal to all federal, state and local government web resources and services.